TimeCDT,TemperatureF,Dew PointF,Humidity,Sea Level PressureIn,VisibilityMPH,Wind Direction,Wind SpeedMPH,Gust SpeedMPH,PrecipitationIn,Events,Conditions,WindDirDegrees,DateUTC
12:15 AM,77.2,72.3,85,29.97,10.0,Calm,Calm,-,N/A,,Clear,0,2013-07-28 05:15:00
12:35 AM,77.0,72.5,86,29.98,10.0,Calm,Calm,-,N/A,,Clear,0,2013-07-28 05:35:00
12:55 AM,76.6,72.3,86,29.98,10.0,Calm,Calm,-,N/A,,Clear,0,2013-07-28 05:55:00
1:15 AM,77.2,72.5,85,29.98,10.0,Calm,Calm,-,N/A,,Clear,0,2013-07-28 06:15:00
1:35 AM,75.7,72.5,90,29.98,10.0,Calm,Calm,-,N/A,,Clear,0,2013-07-28 06:35:00
1:55 AM,75.4,71.8,89,29.98,10.0,Calm,Calm,-,N/A,,Clear,0,2013-07-28 06:55:00
2:15 AM,74.5,72.3,93,29.98,10.0,Calm,Calm,-,N/A,,Clear,0,2013-07-28 07:15:00
2:35 AM,74.3,71.8,92,29.98,10.0,Calm,Calm,-,N/A,,Clear,0,2013-07-28 07:35:00
2:55 AM,74.5,71.4,90,29.97,10.0,Calm,Calm,-,N/A,,Clear,0,2013-07-28 07:55:00
3:15 AM,73.9,71.4,92,29.97,10.0,Calm,Calm,-,N/A,,Clear,0,2013-07-28 08:15:00
3:35 AM,74.5,71.1,89,29.97,10.0,Calm,Calm,-,N/A,,Clear,0,2013-07-28 08:35:00
3:55 AM,73.4,70.9,92,29.96,10.0,Calm,Calm,-,N/A,,Clear,0,2013-07-28 08:55:00
4:15 AM,72.7,70.9,94,29.96,10.0,Calm,Calm,-,N/A,,Clear,0,2013-07-28 09:15:00
4:35 AM,72.7,70.9,94,29.95,10.0,Calm,Calm,-,N/A,,Clear,0,2013-07-28 09:35:00
4:55 AM,72.5,70.7,94,29.96,10.0,Calm,Calm,-,N/A,,Clear,0,2013-07-28 09:55:00
5:15 AM,72.0,70.7,96,29.96,7.0,Calm,Calm,-,N/A,,Clear,0,2013-07-28 10:15:00
5:35 AM,72.1,70.7,95,29.97,7.0,Calm,Calm,-,N/A,,Clear,0,2013-07-28 10:35:00
5:55 AM,72.0,70.7,96,29.96,5.0,Calm,Calm,-,N/A,,Clear,0,2013-07-28 10:55:00
6:15 AM,72.5,71.2,96,29.97,7.0,Calm,Calm,-,N/A,,Clear,0,2013-07-28 11:15:00
6:35 AM,72.5,71.1,95,29.98,7.0,Calm,Calm,-,N/A,,Clear,0,2013-07-28 11:35:00
6:55 AM,72.5,71.1,95,29.98,4.0,Calm,Calm,-,N/A,,Clear,0,2013-07-28 11:55:00
7:15 AM,73.4,71.6,94,29.99,7.0,Calm,Calm,-,N/A,,Clear,0,2013-07-28 12:15:00
7:35 AM,74.3,71.8,92,30.00,10.0,Calm,Calm,-,N/A,,Clear,0,2013-07-28 12:35:00
7:55 AM,75.2,72.3,91,30.01,10.0,Calm,Calm,-,N/A,,Clear,0,2013-07-28 12:55:00
8:15 AM,76.1,73.2,91,30.01,10.0,Calm,Calm,-,N/A,,Clear,0,2013-07-28 13:15:00
8:35 AM,78.8,74.5,87,30.01,10.0,SSE,3.5,-,N/A,,Clear,150,2013-07-28 13:35:00
8:55 AM,80.4,73.9,81,30.01,10.0,Calm,Calm,-,N/A,,Clear,0,2013-07-28 13:55:00
9:15 AM,82.0,72.9,74,30.02,10.0,SSE,3.5,-,N/A,,Clear,150,2013-07-28 14:15:00
9:35 AM,83.3,73.2,71,30.02,10.0,SSE,3.5,-,N/A,,Clear,150,2013-07-28 14:35:00
9:55 AM,84.6,73.8,70,30.01,10.0,SSE,4.6,-,N/A,,Clear,160,2013-07-28 14:55:00
10:15 AM,84.2,73.4,70,30.01,10.0,Calm,Calm,-,N/A,,Clear,0,2013-07-28 15:15:00
10:35 AM,84.0,72.7,69,30.01,10.0,South,3.5,-,N/A,,Clear,190,2013-07-28 15:35:00
10:55 AM,85.3,72.7,66,30.01,10.0,South,3.5,-,N/A,,Clear,180,2013-07-28 15:55:00
11:15 AM,86.9,73.0,63,30.01,10.0,South,5.8,-,N/A,,Clear,190,2013-07-28 16:15:00
11:35 AM,87.8,72.7,61,30.01,10.0,SE,5.8,-,N/A,,Scattered Clouds,140,2013-07-28 16:35:00
11:55 AM,88.2,72.0,59,30.01,10.0,South,8.1,-,N/A,,Mostly Cloudy,170,2013-07-28 16:55:00
12:15 PM,88.3,72.3,59,30.01,10.0,SE,4.6,-,N/A,,Mostly Cloudy,140,2013-07-28 17:15:00
12:35 PM,89.1,70.9,55,30.01,10.0,South,4.6,-,N/A,,Mostly Cloudy,180,2013-07-28 17:35:00
12:55 PM,89.6,72.1,56,30.00,10.0,SSE,6.9,-,N/A,,Scattered Clouds,160,2013-07-28 17:55:00
1:15 PM,89.6,72.0,56,30.00,10.0,South,4.6,-,N/A,,Mostly Cloudy,180,2013-07-28 18:15:00
1:35 PM,90.9,71.4,53,29.99,10.0,SE,8.1,-,N/A,,Mostly Cloudy,140,2013-07-28 18:35:00
1:55 PM,90.5,71.4,53,29.98,10.0,SSE,8.1,-,N/A,,Scattered Clouds,150,2013-07-28 18:55:00
2:15 PM,91.0,71.6,53,29.98,10.0,ESE,9.2,-,N/A,,Scattered Clouds,120,2013-07-28 19:15:00
2:35 PM,91.4,70.9,51,29.97,10.0,SSE,6.9,-,N/A,,Clear,160,2013-07-28 19:35:00
2:55 PM,91.6,72.0,52,29.97,10.0,SE,4.6,-,N/A,,Clear,130,2013-07-28 19:55:00
3:15 PM,92.5,73.0,53,29.96,10.0,ESE,9.2,-,N/A,,Scattered Clouds,110,2013-07-28 20:15:00
3:35 PM,92.3,72.1,52,29.96,10.0,SE,8.1,-,N/A,,Scattered Clouds,140,2013-07-28 20:35:00
3:55 PM,92.1,71.8,51,29.95,10.0,SE,9.2,16.1,N/A,,Clear,130,2013-07-28 20:55:00
4:15 PM,92.5,71.6,50,29.95,10.0,SE,11.5,-,N/A,,Scattered Clouds,130,2013-07-28 21:15:00
4:35 PM,93.0,72.9,52,29.94,10.0,ESE,9.2,-,N/A,,Mostly Cloudy,110,2013-07-28 21:35:00
4:55 PM,91.9,71.4,51,29.94,10.0,SE,9.2,-,N/A,,Scattered Clouds,130,2013-07-28 21:55:00
5:15 PM,91.8,71.1,51,29.94,10.0,ESE,8.1,-,N/A,,Scattered Clouds,120,2013-07-28 22:15:00
5:35 PM,91.9,71.4,51,29.94,10.0,SE,9.2,-,N/A,,Scattered Clouds,130,2013-07-28 22:35:00
5:55 PM,92.1,72.3,52,29.94,10.0,SE,9.2,-,N/A,,Scattered Clouds,130,2013-07-28 22:55:00
6:15 PM,90.5,70.5,52,29.94,10.0,SE,9.2,-,N/A,,Scattered Clouds,140,2013-07-28 23:15:00
6:35 PM,90.7,71.4,53,29.93,10.0,ESE,9.2,-,N/A,,Clear,110,2013-07-28 23:35:00
6:55 PM,90.1,72.0,55,29.93,10.0,ESE,9.2,-,N/A,,Clear,110,2013-07-28 23:55:00
7:15 PM,89.2,71.6,56,29.93,10.0,ESE,10.4,-,N/A,,Clear,120,2013-07-29 00:15:00
7:35 PM,88.3,72.3,59,29.94,10.0,ESE,8.1,-,N/A,,Clear,110,2013-07-29 00:35:00
7:55 PM,86.9,71.6,60,29.94,10.0,ESE,8.1,-,N/A,,Clear,110,2013-07-29 00:55:00
8:15 PM,85.6,71.6,63,29.94,10.0,ESE,5.8,-,N/A,,Clear,110,2013-07-29 01:15:00
8:35 PM,83.8,71.6,66,29.95,10.0,ESE,4.6,-,N/A,,Clear,110,2013-07-29 01:35:00
8:55 PM,82.4,72.0,71,29.95,10.0,ESE,4.6,-,N/A,,Clear,120,2013-07-29 01:55:00
9:15 PM,81.9,72.1,72,29.96,10.0,ESE,4.6,-,N/A,,Clear,110,2013-07-29 02:15:00
9:35 PM,81.0,72.5,75,29.97,10.0,ESE,4.6,-,N/A,,Clear,110,2013-07-29 02:35:00
9:55 PM,80.2,72.5,77,29.97,10.0,ESE,5.8,-,N/A,,Clear,110,2013-07-29 02:55:00
10:15 PM,80.1,72.5,78,29.98,10.0,ESE,4.6,-,N/A,,Clear,110,2013-07-29 03:15:00
10:35 PM,79.9,72.5,78,29.98,10.0,ESE,5.8,-,N/A,,Clear,110,2013-07-29 03:35:00
10:55 PM,79.7,72.5,79,29.98,10.0,ESE,6.9,-,N/A,,Clear,120,2013-07-29 03:55:00
11:15 PM,79.7,72.5,79,29.98,10.0,ESE,6.9,-,N/A,,Clear,120,2013-07-29 04:15:00
11:35 PM,79.7,72.5,79,29.98,10.0,ESE,8.1,-,N/A,,Clear,120,2013-07-29 04:35:00
11:55 PM,80.4,72.5,77,29.98,10.0,SE,9.2,-,N/A,,Clear,130,2013-07-29 04:55:00